Satellite-Ground Cal/Val Site Overpasses Predictions

Prediction of Satellite NPP Overpassing Cal/Val Site: Antarctic Dome C

Ground Cal/Val Site Location: Latitude: -75.10, Longitude: 123.35; Satellite-Ground Site NADIR distance within 100 km.

Table of predicted overpasses for the next 14.0 days since TLE Epoch: 6/7/2019
Interval Starting Time Ending Time Minimum Distance Time Minimum Distance (km)
1 06/09/2019 07:31:32 06/09/2019 07:32:01 06/09/2019 07:31:46 3.23
2 06/12/2019 14:55:01 06/12/2019 14:55:29 06/12/2019 14:55:15 22.87
3 06/13/2019 14:36:18 06/13/2019 14:36:34 06/13/2019 14:36:26 84.16
4 06/14/2019 07:37:52 06/14/2019 07:38:19 06/14/2019 07:38:05 35.97
5 06/15/2019 07:19:07 06/15/2019 07:19:26 06/15/2019 07:19:16 74.03
6 06/17/2019 15:01:22 06/17/2019 15:01:46 06/17/2019 15:01:34 60.02
7 06/18/2019 14:42:32 06/18/2019 14:42:57 06/18/2019 14:42:44 49.18
8 06/19/2019 07:44:14 06/19/2019 07:44:34 06/19/2019 07:44:24 71.28


NCC Satellite Cal/Val Overpasses Prediction Service
